Location: Heiligenberg
(48.5381°N, 7.3897°E)
Time: 21:44:04
(UTC+00:00)

USA 32 - Pass Details

Date: 26 May 2022
Orbit: 775 x 784 km, 85.0° (Epoch: 02 July)

Event Time Altitude Azimuth Distance (km) Brightness Sun altitude
Exits shadow 00:34:56 35° 184° (S) 1,257 4.6 -18.8°
Maximum altitude 00:37:15 89° 100° (E) 791 4.0 -18.6°
Drops below altitude 10° 00:42:33 10° 6° (N) 2,350 7.7 -18.4°
Sets 00:44:55 0° 7° (N) 3,281 8.8 -18.2°
